Flag for U.S.A. Weather past 2 weeks in French Lick, Indiana, U.S.A.

Now
57 °F

Sunny.


Feels Like: 57 °F
Forecast: 37 / 62 °F
Wind: 5 mph from South

Location: Huntingburg Airport

Current Time: Oct 23, 2014 at 1:55:29 PM

Latest Report: Oct 23, 2014 at 1:35 PM


Visibility: 7 mi

Pressure: 30.22 "Hg

Humidity: 59%

Dew point: 43 °F

Location of French LickLocation

Historic Weather in French Lick — Graph

°F

French Lick temperature yesterday

Maximum temperature yesterday: 61 °F (at 3:55 PM)
Minimum temperature yesterday: 37 °F (at 8:15 AM)
Average temperature yesterday: 48 °F

Past Weeks' High & Low Weather Summary

 TemperatureHumidityPressure
High73 °F (Oct 17, 3:55 PM)94% (Oct 15, 1:35 PM)30.33 "Hg (Oct 15, 1:35 PM)
Low36 °F (Oct 23, 7:15 AM)41% (Oct 17, 3:55 PM)29.73 "Hg (Oct 15, 2:35 PM)
Average53 °F74%30.03 "Hg
* Reported Oct 15 12:15 PM — Oct 23 12:35 PM, French Lick, Weather by CustomWeather, © 2014

Note: Actual official high and low records may vary slightly from our data, if they occured in-between our weather recording intervals... More about our weather records

Advertising

French Lick weather history for previous 24 hours

 ConditionsComfort  
Time TempWeatherWind HumidityBarometerVisibility
12:35 PM
Oct 23
55 °FSunny.No wind63%30.26 "Hg10 mi
12:15 PM55 °FSunny.6 mph63%30.26 "Hg10 mi
11:55 AM54 °FSunny.3 mph67%30.26 "Hg10 mi
11:35 AM54 °FSunny.7 mph67%30.26 "Hg10 mi
11:15 AM52 °FSunny.7 mph72%30.26 "Hg10 mi
10:55 AM50 °FSunny.12 mph76%30.26 "Hg10 mi
10:35 AM48 °FSunny.10 mph82%30.26 "Hg10 mi
10:15 AM48 °FSunny.10 mph82%30.26 "Hg10 mi
9:55 AM45 °FSunny.6 mph93%30.26 "Hg9 mi
9:35 AM43 °FSunny.5 mph87%30.27 "Hg8 mi
9:15 AM41 °FSunny.5 mph87%30.26 "Hg7 mi
8:55 AM39 °FClear.No wind93%30.26 "Hg4 mi
8:35 AM39 °FClear.3 mph87%30.26 "Hg5 mi
7:55 AM36 °FClear.3 mph93%30.26 "Hg2 mi
7:35 AM36 °FClear.No wind93%30.26 "Hg1 mi
7:15 AM36 °FDense fog.No wind87%30.26 "Hg1 mi
6:55 AM37 °FClear.No wind87%30.26 "Hg3 mi
6:35 AM39 °FClear.No wind87%30.25 "Hg5 mi
6:15 AM37 °FClear.3 mph93%30.25 "Hg2 mi
5:55 AM37 °FClear.No wind93%30.26 "Hg4 mi
5:35 AM37 °FClear.5 mph93%30.26 "Hg3 mi
5:15 AM37 °FClear.3 mph93%30.25 "Hg4 mi
4:55 AM37 °FClear.No wind93%30.25 "Hg2 mi
4:35 AM39 °FClear.No wind87%30.26 "Hg6 mi
3:55 AM39 °FClear.No wind87%30.25 "Hg4 mi
3:35 AM39 °FClear.No wind87%30.25 "Hg7 mi
3:15 AM39 °FClear.3 mph87%30.26 "Hg6 mi
2:55 AM39 °FClear.No wind87%30.26 "Hg8 mi
2:35 AM39 °FClear.3 mph87%30.26 "Hg8 mi
2:15 AM39 °FClear.No wind87%30.26 "Hg9 mi
1:55 AM41 °FClear.3 mph81%30.26 "Hg10 mi
1:35 AM43 °FClear.No wind81%30.26 "Hg10 mi
1:15 AM45 °FClear.No wind76%30.26 "Hg10 mi
12:55 AM45 °FClear.No wind76%30.26 "Hg10 mi
12:35 AM43 °FClear.5 mph81%30.25 "Hg10 mi
12:15 AM43 °FClear.5 mph81%30.25 "Hg10 mi
11:55 PM
Oct 22
45 °FClear.3 mph76%30.26 "Hg10 mi
11:35 PM45 °FClear.3 mph81%30.25 "Hg10 mi
11:15 PM45 °FClear.6 mph76%30.25 "Hg10 mi
10:55 PM45 °FClear.6 mph76%30.25 "Hg10 mi
10:35 PM46 °FClear.6 mph76%30.24 "Hg10 mi
10:15 PM46 °FClear.8 mph76%30.24 "Hg10 mi
9:55 PM45 °FClear.6 mph81%30.24 "Hg10 mi
9:35 PM45 °FClear.6 mph76%30.25 "Hg10 mi
9:15 PM48 °FClear.5 mph71%30.25 "Hg10 mi
8:55 PM48 °FClear.5 mph71%30.25 "Hg10 mi
8:35 PM50 °FClear.3 mph67%30.25 "Hg10 mi
8:15 PM52 °FClear.No wind62%30.25 "Hg10 mi
7:55 PM52 °FSunny.No wind62%30.25 "Hg10 mi
7:35 PM52 °FSunny.5 mph62%30.24 "Hg10 mi
7:15 PM54 °FSunny.5 mph58%30.24 "Hg10 mi
6:55 PM55 °FSunny.5 mph55%30.24 "Hg10 mi
6:35 PM57 °FSunny.5 mph51%30.24 "Hg10 mi
6:15 PM59 °FSunny.7 mph51%30.23 "Hg10 mi
5:55 PM59 °FSunny.6 mph51%30.23 "Hg10 mi
5:35 PM61 °FSunny.6 mph48%30.23 "Hg9 mi
5:15 PM61 °FSunny.3 mph52%30.24 "Hg10 mi
4:55 PM61 °FSunny.5 mph48%30.25 "Hg3 mi
4:35 PM61 °FSunny.3 mph45%30.25 "Hg9 mi
4:15 PM61 °FSunny.3 mph52%30.26 "Hg10 mi
3:55 PM61 °FSunny.5 mph52%30.26 "Hg10 mi
3:35 PM59 °FSunny.No wind51%30.27 "Hg10 mi
3:15 PM59 °FSunny.5 mph55%30.26 "Hg10 mi
2:55 PM59 °FSunny.8 mph51%30.27 "Hg10 mi
2:35 PM57 °FSunny.6 mph55%30.28 "Hg10 mi
2:15 PM57 °FSunny.10 mph55%30.29 "Hg10 mi
1:55 PM57 °FSunny.8 mph51%30.29 "Hg10 mi
1:35 PM57 °FSunny.9 mph55%30.30 "Hg10 mi
1:15 PM55 °FSunny.7 mph55%30.31 "Hg10 mi
Weather by CustomWeather, © 2014

See weather overviewHow to use our weather pages